Flag for Australia Weather past 2 weeks in Albury, New South Wales, Australia

Now
70 °F

Clear.


Feels Like: 70 °F
Forecast: 63 / 94 °F
Wind: 1 mph from Southeast

Location: Albury Airport

Current Time: Dec 22, 2014 at 2:18:46 AM

Latest Report: Dec 22, 2014 at 1:00 AM


Visibility: N/A

Pressure: 29.89 "Hg

Humidity: 57%

Dew point: 54 °F

Location of AlburyLocation

Historic Weather in Albury — Graph

°F

Albury temperature yesterday

Maximum temperature yesterday: 91 °F (at 5:00 PM)
Minimum temperature yesterday: 59 °F (at 5:00 AM)
Average temperature yesterday: 76 °F

Past Weeks' High & Low Weather Summary

 TemperatureHumidityPressure
High95 °F (Dec 15, 2:00 PM)100% (Dec 8, 5:00 AM)30.09 "Hg (Dec 8, 5:00 AM)
Low52 °F (Dec 18, 6:00 AM)10% (Dec 16, 2:04 PM)29.39 "Hg (Dec 16, 5:00 PM)
Average71 °F50%29.82 "Hg
* Reported Dec 7 1:00 AM — Dec 22 1:00 AM, Albury, Weather by CustomWeather, © 2014

Note: Actual official high and low records may vary slightly from our data, if they occured in-between our weather recording intervals... More about our weather records

Advertising

Albury weather history for previous 24 hours

 ConditionsComfort  
Time TempWeatherWind HumidityBarometerVisibility
1:00 AM
Dec 22
70 °FClear.1 mph57%29.89 "HgN/A
12:00 AM72 °FClear.No wind50%29.92 "HgN/A
11:00 PM
Dec 21
75 °FClear.3 mph47%29.92 "HgN/A
10:00 PM77 °FClear.No wind44%29.89 "HgN/A
9:00 PM81 °FClear.6 mph37%29.89 "HgN/A
8:00 PM84 °FSunny.5 mph29%29.86 "HgN/A
7:00 PM88 °FSunny.8 mph24%29.86 "HgN/A
6:00 PM90 °FScattered clouds.9 mph22%29.86 "HgN/A
5:00 PM91 °FPartly sunny.9 mph21%29.86 "HgN/A
4:00 PM90 °FScattered clouds.2 mph21%29.89 "HgN/A
3:00 PM88 °FScattered clouds.12 mph24%29.92 "HgN/A
2:00 PM88 °FScattered clouds.7 mph22%29.92 "HgN/A
1:00 PM88 °FSunny.7 mph22%29.95 "HgN/A
12:00 PM86 °FSunny.6 mph27%29.95 "HgN/A
11:00 AM82 °FSunny.3 mph40%29.98 "HgN/A
10:00 AM77 °FSunny.7 mph51%30.01 "HgN/A
9:00 AM73 °FSunny.5 mph53%30.01 "HgN/A
8:00 AM68 °FSunny.No wind60%30.01 "HgN/A
7:00 AM63 °FSunny.5 mph73%29.98 "HgN/A
6:00 AM59 °FSunny.No wind77%29.95 "HgN/A
5:00 AM59 °FClear.5 mph77%29.95 "HgN/A
4:00 AM61 °FClear.No wind72%29.95 "HgN/A
3:00 AM63 °FClear.No wind68%29.95 "HgN/A
2:00 AM64 °FClear.5 mph64%29.95 "HgN/A
Weather by CustomWeather, © 2014

See weather overviewHow to use our weather pages